Location: Proctor
(47.8934°N, 114.3048°W)
Time: 11:23:34
(UTC+00:00)

Transit 4A - Pass Details

Date: 02 July 2024
Orbit: 870 x 973 km, 66.8° (Epoch: 13 July)

Event Time Altitude Azimuth Distance (km) Brightness Sun altitude
Rises 06:24:41 0° 274° (W) 3,457 11.2 -17.0°
Reaches altitude 10° 06:28:03 10° 293° (WNW) 2,523 10.7 -17.2°
Maximum altitude 06:31:54 18° 335° (NNW) 2,032 10.7 -17.4°
Drops below altitude 10° 06:35:47 10° 17° (NNE) 2,546 11.0 -17.6°
Sets 06:39:12 0° 36° (NE) 3,502 11.5 -17.7°
